Time,TemperatureF,DewpointF,PressureIn,WindDirection,WindDirectionDegrees,WindSpeedMPH,WindSpeedGustMPH,Humidity,HourlyPrecipIn,Conditions,Clouds,dailyrainin,SoftwareType,DateUTC
2013-05-07 00:02:00,47.0,46.0,29.91,West,269,0.0,-999.0,97,-99.99,,,0.53,weatherlink.com 1.10,2013-05-07 05:02:00,
2013-05-07 00:17:00,47.1,46.0,29.90,West,269,0.0,-999.0,97,-99.99,,,0.53,weatherlink.com 1.10,2013-05-07 05:17:00,
2013-05-07 00:32:00,47.3,47.0,29.90,West,269,0.0,-999.0,97,-99.99,,,0.53,weatherlink.com 1.10,2013-05-07 05:32:00,
2013-05-07 00:47:00,47.3,47.0,29.90,West,269,0.0,-999.0,97,-99.99,,,0.53,weatherlink.com 1.10,2013-05-07 05:47:00,
2013-05-07 01:02:00,47.3,47.0,29.90,West,269,0.0,-999.0,97,-99.99,,,0.53,weatherlink.com 1.10,2013-05-07 06:02:00,
2013-05-07 01:17:00,47.3,47.0,29.90,West,269,0.0,-999.0,97,-99.99,,,0.53,weatherlink.com 1.10,2013-05-07 06:17:00,
2013-05-07 01:32:00,47.2,46.0,29.90,West,269,0.0,-999.0,97,-99.99,,,0.53,weatherlink.com 1.10,2013-05-07 06:32:00,
2013-05-07 01:47:00,47.1,46.0,29.90,West,269,0.0,-999.0,97,-99.99,,,0.53,weatherlink.com 1.10,2013-05-07 06:47:00,
2013-05-07 02:02:00,47.1,46.0,29.90,West,269,0.0,-999.0,97,-99.99,,,0.53,weatherlink.com 1.10,2013-05-07 07:02:00,
2013-05-07 02:17:00,47.1,46.0,29.90,West,269,0.0,-999.0,97,-99.99,,,0.00,weatherlink.com 1.10,2013-05-07 07:17:00,
2013-05-07 02:32:00,47.3,47.0,29.90,West,269,0.0,-999.0,97,-99.99,,,0.00,weatherlink.com 1.10,2013-05-07 07:32:00,
2013-05-07 02:47:00,47.6,47.0,29.90,West,278,0.0,-999.0,97,-99.99,,,0.00,weatherlink.com 1.10,2013-05-07 07:47:00,
2013-05-07 03:02:00,47.6,47.0,29.89,West,278,0.0,-999.0,97,-99.99,,,0.00,weatherlink.com 1.10,2013-05-07 08:02:00,
2013-05-07 03:17:00,47.6,47.0,29.90,West,278,0.0,-999.0,97,-99.99,,,0.00,weatherlink.com 1.10,2013-05-07 08:17:00,
2013-05-07 03:32:00,47.7,47.0,29.90,West,278,0.0,-999.0,97,-99.99,,,0.00,weatherlink.com 1.10,2013-05-07 08:32:00,
2013-05-07 03:48:00,47.4,47.0,29.90,West,278,0.0,-999.0,97,-99.99,,,0.00,weatherlink.com 1.10,2013-05-07 08:48:00,
2013-05-07 04:02:00,46.7,46.0,29.90,West,278,0.0,-999.0,97,-99.99,,,0.00,weatherlink.com 1.10,2013-05-07 09:02:00,
2013-05-07 04:17:00,46.0,45.0,29.90,West,278,0.0,-999.0,96,-99.99,,,0.00,weatherlink.com 1.10,2013-05-07 09:17:00,
2013-05-07 04:32:00,45.5,45.0,29.91,West,278,0.0,-999.0,96,-99.99,,,0.00,weatherlink.com 1.10,2013-05-07 09:32:00,
2013-05-07 04:47:00,45.5,45.0,29.91,West,277,0.0,-999.0,97,-99.99,,,0.00,weatherlink.com 1.10,2013-05-07 09:47:00,
2013-05-07 05:02:00,45.8,45.0,29.92,West,277,1.0,-999.0,97,-99.99,,,0.00,weatherlink.com 1.10,2013-05-07 10:02:00,
2013-05-07 05:17:00,46.5,46.0,29.92,ENE,69,3.0,-999.0,97,-99.99,,,0.00,weatherlink.com 1.10,2013-05-07 10:17:00,
2013-05-07 05:32:00,47.0,46.0,29.92,ENE,71,3.0,-999.0,97,-99.99,,,0.00,weatherlink.com 1.10,2013-05-07 10:32:00,
2013-05-07 05:47:00,47.2,46.0,29.92,ENE,77,0.0,-999.0,97,-99.99,,,0.00,weatherlink.com 1.10,2013-05-07 10:47:00,
2013-05-07 06:02:00,47.3,47.0,29.94,ENE,77,0.0,-999.0,97,-99.99,,,0.00,weatherlink.com 1.10,2013-05-07 11:02:00,
2013-05-07 06:18:00,47.2,46.0,29.94,ENE,77,0.0,-999.0,97,-99.99,,,0.00,weatherlink.com 1.10,2013-05-07 11:18:00,
2013-05-07 06:33:00,47.4,47.0,29.94,ENE,77,2.0,-999.0,97,-99.99,,,0.00,weatherlink.com 1.10,2013-05-07 11:33:00,
2013-05-07 06:48:00,47.6,47.0,29.95,NNE,22,0.0,-999.0,97,-99.99,,,0.00,weatherlink.com 1.10,2013-05-07 11:48:00,
2013-05-07 07:03:00,47.8,47.0,29.96,NNE,22,0.0,-999.0,97,-99.99,,,0.00,weatherlink.com 1.10,2013-05-07 12:03:00,
2013-05-07 07:18:00,47.9,47.0,29.97,NNE,22,1.0,-999.0,97,-99.99,,,0.00,weatherlink.com 1.10,2013-05-07 12:18:00,
2013-05-07 07:33:00,48.1,47.0,29.98,WNW,291,2.0,-999.0,97,-99.99,,,0.01,weatherlink.com 1.10,2013-05-07 12:33:00,
2013-05-07 07:48:00,47.9,47.0,29.98,WNW,285,0.0,-999.0,97,-99.99,,,0.01,weatherlink.com 1.10,2013-05-07 12:48:00,
2013-05-07 08:03:00,48.3,48.0,29.98,WNW,301,0.0,-999.0,97,-99.99,,,0.01,weatherlink.com 1.10,2013-05-07 13:03:00,
2013-05-07 08:18:00,49.0,48.0,29.99,NE,44,0.0,-999.0,97,-99.99,,,0.01,weatherlink.com 1.10,2013-05-07 13:18:00,
2013-05-07 08:33:00,49.4,49.0,29.99,NE,44,1.0,-999.0,97,-99.99,,,0.01,weatherlink.com 1.10,2013-05-07 13:33:00,
2013-05-07 08:48:00,49.7,49.0,29.99,NNE,28,2.0,-999.0,97,-99.99,,,0.01,weatherlink.com 1.10,2013-05-07 13:48:00,
2013-05-07 09:03:00,50.2,49.0,29.99,NNE,17,0.0,-999.0,97,-99.99,,,0.01,weatherlink.com 1.10,2013-05-07 14:03:00,
2013-05-07 09:18:00,50.3,50.0,29.99,North,5,0.0,-999.0,97,-99.99,,,0.01,weatherlink.com 1.10,2013-05-07 14:18:00,
2013-05-07 09:33:00,51.4,51.0,29.99,NE,34,0.0,-999.0,97,-99.99,,,0.01,weatherlink.com 1.10,2013-05-07 14:33:00,
2013-05-07 09:48:00,52.1,51.0,30.00,NE,36,0.0,-999.0,95,-99.99,,,0.01,weatherlink.com 1.10,2013-05-07 14:48:00,
2013-05-07 10:03:00,52.3,50.0,30.00,NE,36,1.0,-999.0,93,-99.99,,,0.01,weatherlink.com 1.10,2013-05-07 15:03:00,
2013-05-07 10:18:00,53.3,51.0,30.00,WSW,242,1.0,-999.0,93,-99.99,,,0.01,weatherlink.com 1.10,2013-05-07 15:18:00,
2013-05-07 10:33:00,54.1,51.0,30.01,SW,231,1.0,-999.0,90,-99.99,,,0.01,weatherlink.com 1.10,2013-05-07 15:33:00,
2013-05-07 10:48:00,54.8,52.0,30.01,SW,219,1.0,-999.0,89,-99.99,,,0.01,weatherlink.com 1.10,2013-05-07 15:48:00,
2013-05-07 11:03:00,56.6,52.0,30.01,SE,128,1.0,-999.0,85,-99.99,,,0.01,weatherlink.com 1.10,2013-05-07 16:03:00,
2013-05-07 11:18:00,56.9,52.0,30.01,NNW,344,0.0,-999.0,83,-99.99,,,0.01,weatherlink.com 1.10,2013-05-07 16:18:00,
2013-05-07 11:33:00,58.4,53.0,30.01,WSW,238,3.0,-999.0,82,-99.99,,,0.01,weatherlink.com 1.10,2013-05-07 16:33:00,
2013-05-07 11:48:00,59.3,53.0,30.00,WSW,254,3.0,-999.0,80,-99.99,,,0.01,weatherlink.com 1.10,2013-05-07 16:48:00,
2013-05-07 12:03:00,59.5,53.0,30.00,SE,144,0.0,-999.0,79,-99.99,,,0.01,weatherlink.com 1.10,2013-05-07 17:03:00,
2013-05-07 12:18:00,60.7,53.0,29.99,SW,214,0.0,-999.0,76,-99.99,,,0.01,weatherlink.com 1.10,2013-05-07 17:18:00,
2013-05-07 12:34:00,62.2,54.0,30.00,WSW,250,1.0,-999.0,75,-99.99,,,0.01,weatherlink.com 1.10,2013-05-07 17:34:00,
2013-05-07 12:49:00,62.4,52.0,30.00,WNW,296,0.0,-999.0,69,-99.99,,,0.01,weatherlink.com 1.10,2013-05-07 17:49:00,
2013-05-07 13:04:00,63.2,53.0,29.99,SSE,148,0.0,-999.0,69,-99.99,,,0.01,weatherlink.com 1.10,2013-05-07 18:04:00,
2013-05-07 13:19:00,64.0,54.0,29.98,East,84,0.0,-999.0,69,-99.99,,,0.01,weatherlink.com 1.10,2013-05-07 18:19:00,
2013-05-07 13:34:00,65.3,54.0,29.98,SSE,165,2.0,-999.0,66,-99.99,,,0.01,weatherlink.com 1.10,2013-05-07 18:34:00,
2013-05-07 13:49:00,65.2,55.0,29.98,South,174,2.0,-999.0,69,-99.99,,,0.01,weatherlink.com 1.10,2013-05-07 18:49:00,
2013-05-07 14:04:00,65.5,54.0,29.98,SSE,147,1.0,-999.0,67,-99.99,,,0.01,weatherlink.com 1.10,2013-05-07 19:04:00,
2013-05-07 14:19:00,66.4,55.0,29.98,South,190,2.0,-999.0,66,-99.99,,,0.01,weatherlink.com 1.10,2013-05-07 19:19:00,
2013-05-07 14:34:00,66.8,55.0,29.97,West,278,0.0,-999.0,66,-99.99,,,0.01,weatherlink.com 1.10,2013-05-07 19:34:00,
2013-05-07 14:49:00,67.1,55.0,29.96,SW,229,2.0,-999.0,66,-99.99,,,0.01,weatherlink.com 1.10,2013-05-07 19:49:00,
2013-05-07 15:04:00,66.9,55.0,29.96,SW,217,4.0,-999.0,66,-99.99,,,0.01,weatherlink.com 1.10,2013-05-07 20:04:00,
2013-05-07 15:19:00,67.7,55.0,29.96,West,265,1.0,-999.0,64,-99.99,,,0.01,weatherlink.com 1.10,2013-05-07 20:19:00,
2013-05-07 15:34:00,66.9,53.0,29.96,West,263,0.0,-999.0,62,-99.99,,,0.01,weatherlink.com 1.10,2013-05-07 20:34:00,
2013-05-07 15:49:00,66.4,53.0,29.96,NNW,327,1.0,-999.0,62,-99.99,,,0.01,weatherlink.com 1.10,2013-05-07 20:49:00,
2013-05-07 16:04:00,65.9,54.0,29.96,WSW,242,0.0,-999.0,65,-99.99,,,0.01,weatherlink.com 1.10,2013-05-07 21:04:00,
2013-05-07 16:19:00,66.0,54.0,29.95,SW,219,3.0,-999.0,66,-99.99,,,0.01,weatherlink.com 1.10,2013-05-07 21:19:00,
2013-05-07 16:34:00,66.3,52.0,29.95,North,355,0.0,-999.0,60,-99.99,,,0.01,weatherlink.com 1.10,2013-05-07 21:34:00,
2013-05-07 16:49:00,66.9,52.0,29.96,West,262,3.0,-999.0,59,-99.99,,,0.01,weatherlink.com 1.10,2013-05-07 21:49:00,
2013-05-07 17:04:00,67.2,53.0,29.96,WNW,295,2.0,-999.0,60,-99.99,,,0.01,weatherlink.com 1.10,2013-05-07 22:04:00,
2013-05-07 17:19:00,67.1,54.0,29.96,West,269,3.0,-999.0,63,-99.99,,,0.01,weatherlink.com 1.10,2013-05-07 22:19:00,
2013-05-07 17:34:00,67.1,53.0,29.96,NNW,330,2.0,-999.0,61,-99.99,,,0.01,weatherlink.com 1.10,2013-05-07 22:34:00,
2013-05-07 17:49:00,66.7,53.0,29.96,NW,306,0.0,-999.0,61,-99.99,,,0.01,weatherlink.com 1.10,2013-05-07 22:49:00,
2013-05-07 18:04:00,66.8,53.0,29.96,West,281,0.0,-999.0,62,-99.99,,,0.01,weatherlink.com 1.10,2013-05-07 23:04:00,
2013-05-07 18:19:00,66.4,53.0,29.96,WNW,294,1.0,-999.0,63,-99.99,,,0.01,weatherlink.com 1.10,2013-05-07 23:19:00,
2013-05-07 18:34:00,65.8,55.0,29.96,WSW,254,0.0,-999.0,69,-99.99,,,0.01,weatherlink.com 1.10,2013-05-07 23:34:00,
2013-05-07 18:49:00,64.7,55.0,29.96,West,268,0.0,-999.0,70,-99.99,,,0.01,weatherlink.com 1.10,2013-05-07 23:49:00,
2013-05-07 19:04:00,63.8,55.0,29.96,West,271,0.0,-999.0,72,-99.99,,,0.01,weatherlink.com 1.10,2013-05-08 00:04:00,
2013-05-07 19:19:00,62.8,55.0,29.97,West,271,0.0,-999.0,75,-99.99,,,0.01,weatherlink.com 1.10,2013-05-08 00:19:00,
2013-05-07 19:34:00,61.6,55.0,29.97,West,271,0.0,-999.0,78,-99.99,,,0.01,weatherlink.com 1.10,2013-05-08 00:34:00,
2013-05-07 19:49:00,60.2,54.0,29.97,West,271,0.0,-999.0,81,-99.99,,,0.01,weatherlink.com 1.10,2013-05-08 00:49:00,
2013-05-07 20:04:00,59.0,54.0,29.97,WSW,248,0.0,-999.0,84,-99.99,,,0.01,weatherlink.com 1.10,2013-05-08 01:04:00,
2013-05-07 20:19:00,58.0,54.0,29.97,WSW,248,0.0,-999.0,86,-99.99,,,0.01,weatherlink.com 1.10,2013-05-08 01:19:00,
2013-05-07 20:34:00,57.1,54.0,29.97,WSW,248,0.0,-999.0,88,-99.99,,,0.01,weatherlink.com 1.10,2013-05-08 01:34:00,
2013-05-07 20:49:00,56.5,53.0,29.98,WSW,248,0.0,-999.0,89,-99.99,,,0.01,weatherlink.com 1.10,2013-05-08 01:49:00,
2013-05-07 21:04:00,56.0,53.0,29.98,WSW,248,0.0,-999.0,90,-99.99,,,0.01,weatherlink.com 1.10,2013-05-08 02:04:00,
2013-05-07 21:19:00,55.6,53.0,29.98,WSW,248,1.0,-999.0,91,-99.99,,,0.01,weatherlink.com 1.10,2013-05-08 02:19:00,
2013-05-07 21:34:00,55.2,53.0,29.99,WSW,248,0.0,-999.0,92,-99.99,,,0.01,weatherlink.com 1.10,2013-05-08 02:34:00,
2013-05-07 21:49:00,54.8,53.0,29.99,WSW,248,0.0,-999.0,92,-99.99,,,0.01,weatherlink.com 1.10,2013-05-08 02:49:00,
2013-05-07 22:04:00,54.4,52.0,29.99,WSW,248,0.0,-999.0,92,-99.99,,,0.01,weatherlink.com 1.10,2013-05-08 03:04:00,
2013-05-07 22:19:00,54.2,52.0,29.99,WSW,248,0.0,-999.0,93,-99.99,,,0.01,weatherlink.com 1.10,2013-05-08 03:19:00,
2013-05-07 22:34:00,53.9,52.0,29.99,WSW,242,0.0,-999.0,93,-99.99,,,0.01,weatherlink.com 1.10,2013-05-08 03:34:00,
2013-05-07 22:49:00,53.5,52.0,29.99,WSW,242,0.0,-999.0,93,-99.99,,,0.01,weatherlink.com 1.10,2013-05-08 03:49:00,
2013-05-07 23:04:00,52.9,51.0,30.00,WSW,242,0.0,-999.0,93,-99.99,,,0.01,weatherlink.com 1.10,2013-05-08 04:04:00,
2013-05-07 23:19:00,52.6,51.0,30.00,WSW,242,0.0,-999.0,94,-99.99,,,0.01,weatherlink.com 1.10,2013-05-08 04:19:00,
2013-05-07 23:34:00,52.5,51.0,30.00,SW,221,0.0,-999.0,94,-99.99,,,0.01,weatherlink.com 1.10,2013-05-08 04:34:00,
2013-05-07 23:49:00,52.3,51.0,30.00,SW,221,0.0,-999.0,94,-99.99,,,0.01,weatherlink.com 1.10,2013-05-08 04:49:00,